Other Surface Observations
Issued by NWS

Home | Current Version | Previous Version | Text Only | Print | Product List | Glossary On
Versions: 1 2 3 4 5 6 7 8 9 10 11 12 13 14 15 16 17 18 19 20 21 22 23 24 25 26 27 28 29 30 31 32 33 34 35 36 37 38 39 40 41 42 43 44 45 46 47 48 49 50
765
SXUS52 KTAE 222118
OSOTAE
OSOTAE
North Florida/South Alabama/Southwest Georgia Weather Roundup
National Weather Service Tallahassee Florida
400 PM EST WED FEB 22 2017

Note: "fair" indicates few or no clouds below 12,000 feet with no
significant weather and/or obstructions to visibility.

!FLZ017-115-028-034-025-222200
...North Florida...

CITY           SKY/WX    TMP DP  RH WIND       PRES   REMARKS
TALLAHASSEE    LGT RAIN  66  64  93 NE6       29.71S
APALACHICOLA   CLOUDY    70  61  73 E13G21    29.67R
PERRY          CLOUDY    71  63  76 NE8       29.71S
CROSS CITY     LGT RAIN  68  64  88 E8        29.69F
JACKSONVILLE   LGT RAIN  65  64  97 SE3       29.75F
$$

!FLZ112-006-005-002-011-222200
...Florida Panhandle...

CITY           SKY/WX    TMP DP  RH WIND       PRES   REMARKS
MARIANNA       LGT RAIN  71  64  78 NE15      29.71S
BONIFAY        FAIR      73  62  68 NE10G22   29.70S
PANAMA CITY NW FAIR      74  58  57 E9        29.66S
TYNDALL AFB    MOSUNNY   73  61  65 E9        29.67S
TYND DRONE APT MOCLDY    72  58  62 E14G22    29.66F
DE FUNIAK SPR  MOCLDY    71  60  69 E8        29.70F
EGLIN AFB      MOSUNNY   72  60  65 NE12      29.68S
DESTIN         MOSUNNY   76  66  71 NE9       29.68S
HURLBURT       MOSUNNY   73  50  43 NE13      29.67F
CRESTVIEW      MOSUNNY   73  61  65 NE8       29.71F
PENSACOLA      PTSUNNY   73  60  63 N7        29.70F
$$

!ALZ063-066-222200
...South Alabama...

CITY           SKY/WX    TMP DP  RH WIND       PRES   REMARKS
DOTHAN         PTSUNNY   71  64  78 E12G20    29.76F
OZARK CAIRNS   CLOUDY    72  64  78 NE12      29.73S
FT RUCKER HELI LGT RAIN  70  61  73 NE6       29.73S
RUCKER HELI 3  NOT AVBL
RUCKER HELI 2  PTSUNNY   70  61  73 E10       29.72F
FLORALA APT    MOSUNNY   71  60  68 E13       29.72F
ANDALUSIA      PTSUNNY   74  60  61 E13       29.72S
TROY           MOSUNNY   72  61  68 E9        29.75F
EUFALA         FAIR      77  61  57 E10G18    29.74F
MOBILE         MOSUNNY   72  55  55 NW12G20   29.77S
$$

!GAZ120>161-222200
...Southwest and South Central Georgia...

CITY           SKY/WX    TMP DP  RH WIND       PRES   REMARKS
THOMASVILLE    CLOUDY    70  68  94 E9        29.75R
BAINBRIDGE     CLOUDY    68  63  83 NE10      29.74S
MOODY AFB      CLOUDY    67  63  86 E7        29.75R
VALDOSTA       LGT RAIN  71  61  70 E8        29.74S
MOULTRIE       CLOUDY    68  64  88 NE7       29.75F
BLAKELY        CLOUDY    72  63  73 E13G18    29.75S
ALBANY         LGT RAIN  70  64  81 E9        29.78S
TIFTON         LGT RAIN  67  64  89 NE7       29.76F
FITZGERALD     MOCLDY    71  63  75 E9        29.81S
CORDELE        MOCLDY    73  64  74 E8G16     29.80S
AMERICUS       FAIR      70  61  73 E7        29.80F
HOMERVILLE     LGT RAIN  64  64 100 NE5       29.77F
$$

!GMZ750-755-770-775-222200
...Coastal and Buoy Obs...

STATION/POSITION TIME  TEMP    WIND        PRES    VSBY  WAVE
                       AIR SEA DIR/SP/G                  HT/PER
                 (UTC) (F)     (DEG/KT/KT) (MB)    (MI)  (FT/S)
KEATON BEACH     2100   70      50/  9/ 13 1004.9S
CEDAR KEY        2100   68      80/ 18/ 21 1004.5F
C TOWER          2100   64      70/ 20/ 21 1004.9F
APALACHICOLA BUO 2050   68 70   20/  8/ 10 1003.7F         4/ 7
PANAMA CITY BUOY 2050   67 71              1004.2F         4/ 5
MOBILE BUOY      NOT AVBL
ORANGE BCH AL BU 2050   68 68  340/ 12/ 14 1005.9F         3/ 7
$$




USA.gov is the U.S. government's official web portal to all federal, state and local government web resources and services.